Home   Weather   Ajmer   Past weeks

Flag for India Past Weather in Ajmer, Rajasthan, India — Yesterday and Last 2 Weeks

Now
61 °F

Haze.


Feels Like: 61 °F
Forecast: 58 / 82 °F
Wind: No wind

Location: Jaipur / Sanganer

Current Time: Dec 11, 2016 at 4:05:03 am

Latest Report: Dec 11, 2016 at 3:30 am


Visibility: 2 mi

Pressure: 29.95 "Hg

Humidity: 72%

Dew Point: 52 °F

Location of AjmerLocation

Past Weather in Ajmer — Graph

°F

Ajmer Temperature Yesterday

Maximum temperature yesterday: 82 °F (at 1:30 pm)
Minimum temperature yesterday: 55 °F (at 7:30 am)
Average temperature yesterday: 70 °F

High & Low Weather Summary for the Past Weeks

 TemperatureHumidityPressure
High88 °F (Nov 29, 2:30 pm)100% (Dec 5, 12:00 am)30.24 "Hg (Dec 5, 12:00 am)
Low52 °F (Dec 4, 6:30 am)14% (Nov 26, 3:30 pm)29.92 "Hg (Nov 29, 2:30 pm)
Average70 °F43%30.05 "Hg
* Reported Nov 26 3:00 am — Dec 11 2:30 am, Ajmer, Weather by CustomWeather, © 2016

Note: Actual official high and low records may vary slightly from our data, if they occured in-between our weather recording intervals... More about our weather records

Advertising

Ajmer Weather History for the Previous 24 Hours

Scroll right to see more
 ConditionsComfort  
Time TempWeatherWind HumidityBarometerVisibility
2:30 am
Sun, Dec 11
61 °FHaze.No wind68%29.95 "Hg2 mi
1:30 am61 °FHaze.No wind72%29.98 "Hg2 mi
1:00 am63 °FHaze.No wind68%29.98 "Hg2 mi
12:30 am64 °FHaze.3 mph64%29.98 "Hg2 mi
12:00 am64 °FHaze.No wind68%29.98 "Hg2 mi
11:00 pm
Sat, Dec 10
64 °FHaze.No wind68%29.98 "Hg2 mi
10:00 pm66 °FHaze.No wind64%29.98 "Hg2 mi
9:00 pm68 °FHaze.3 mph56%29.98 "Hg2 mi
8:30 pm68 °FHaze.3 mph56%29.98 "Hg2 mi
8:00 pm70 °FHaze.3 mph53%29.98 "Hg2 mi
7:30 pm70 °FHaze.No wind50%29.95 "Hg2 mi
7:00 pm73 °FHaze.1 mph41%29.95 "Hg2 mi
6:30 pm75 °FHaze.3 mph39%29.95 "Hg2 mi
5:30 pm79 °FHaze.2 mph30%29.92 "Hg2 mi
4:30 pm81 °FHaze.6 mph30%29.92 "Hg3 mi
3:30 pm82 °FHaze.6 mph26%29.92 "Hg3 mi
2:30 pm82 °FHaze.5 mph26%29.92 "Hg3 mi
2:00 pm82 °FHaze.5 mph26%29.95 "Hg3 mi
1:30 pm82 °FHaze.6 mph26%29.95 "Hg2 mi
1:00 pm81 °FHaze.6 mph30%29.98 "Hg2 mi
12:00 pm77 °FHaze.6 mph34%30.01 "Hg2 mi
11:30 am77 °FHaze.5 mph36%30.01 "Hg2 mi
11:00 am77 °FClear.1 mph39%30.04 "Hg2 mi
10:30 am73 °FHaze.1 mph41%30.04 "Hg2 mi
10:00 am73 °FClear.1 mph41%30.04 "Hg2 mi
9:00 am70 °FClear.No wind50%30.01 "Hg1 mi
8:00 am61 °FClear.No wind68%29.98 "Hg1 mi
7:30 am55 °FClear.3 mph77%29.98 "Hg1 mi
7:00 am57 °FClear.No wind77%29.95 "Hg1 mi
6:00 am57 °FClear.No wind77%29.95 "Hg1 mi
5:30 am57 °FClear.No wind72%29.95 "Hg1 mi
5:00 am57 °FClear.No wind77%29.92 "Hg1 mi
4:00 am61 °FClear.No wind72%29.92 "Hg1 mi
Weather by CustomWeather, © 2016

See weather overviewHow to use our weather pages